Wind_Speed
62 62 62 62 62 62 62 62 62 60 58 60 62 64 66 66 68 69 69 70 71 71 71 70 70 69 68 67 67 66 66 66 66 67 68 68 67 65
61 61 61 61 61 61 60 62 62 61 60 60 62 64 66 67 68 68 67 66 65 63 62 60 59 58 58 57 58 58 59 59 60 62 64 66 67 66
61 61 61 60 60 60 61 61 61 61 61 60 63 64 66 66 65 63 60 57 54 52 50 49 48 47 46 46 47 47 49 50 52 54 57 60 63 65
59 59 59 59 59 60 60 60 60 61 61 60 61 62 62 60 57 53 50 46 44 42 40 39 38 37 38 38 39 40 41 43 44 46 49 53 56 60
57 58 58 58 58 59 59 59 59 60 60 59 57 55 52 49 46 42 39 37 35 34 33 33 33 34 34 34 35 35 36 37 39 41 43 46 50 54
56 56 57 56 56 57 56 56 56 55 54 52 48 44 40 37 35 32 31 31 31 31 30 30 30 30 30 30 30 31 31 32 33 36 39 42 46 49
55 55 55 54 54 53 52 52 50 48 46 41 37 33 31 29 28 28 27 28 29 29 28 28 28 28 28 27 27 28 28 28 29 30 33 36 40 45
52 52 51 50 49 49 48 46 44 40 35 31 28 26 25 25 25 26 26 26 27 27 27 27 26 25 25 24 25 25 25 25 26 27 28 30 34 39
48 47 47 45 44 43 42 39 36 31 27 24 21 21 21 22 23 24 25 25 25 24 23 23 24 23 23 22 22 22 22 22 23 24 25 28 30 34
45 43 42 40 38 36 33 30 27 23 20 18 17 18 19 21 23 23 23 23 22 22 21 20 20 20 19 19 19 19 19 20 21 22 23 25 27 30
40 38 35 33 31 27 25 22 19 16 15 14 15 17 19 20 20 21 20 20 20 21 19 17 17 17 16 15 15 15 15 16 17 19 21 22 24 27
34 31 28 25 22 20 16 14 12 11 12 13 15 16 18 18 19 19 19 19 19 19 17 16 16 15 14 13 12 12 12 13 14 15 17 19 21 24
26 23 20 17 15 12 10 8 8 9 11 12 14 15 16 17 18 18 18 19 19 18 17 16 16 15 14 12 11 10 9 9 10 12 14 16 18 21
19 16 13 11 9 7 6 6 7 9 10 11 13 15 16 16 17 18 18 18 18 18 18 18 17 16 14 11 10 9 7 6 7 9 11 13 15 18
12 10 8 6 4 3 4 5 7 8 10 11 13 15 16 16 16 17 19 19 19 19 19 20 19 17 15 13 11 8 4 2 2 5 8 10 12 15
6 4 3 2 2 3 4 5 7 8 10 11 13 15 16 16 17 17 19 20 20 21 21 21 20 18 17 16 14 10 7 4 4 5 7 9 11 13
1 1 2 3 4 4 5 6 8 9 10 11 13 15 16 17 17 18 19 20 21 22 22 22 21 20 19 18 16 14 11 9 8 8 8 9 11 12
4 5 5 5 6 6 7 8 9 10 11 12 13 15 16 17 18 19 20 21 22 22 22 22 22 22 22 20 18 17 15 14 13 12 12 11 12 13
7 7 7 7 8 8 9 9 10 11 12 13 14 15 16 17 18 19 20 21 22 23 23 23 23 23 23 22 20 19 18 18 17 16 15 14 14 14
9 9 9 9 10 10 10 11 12 13 14 15 16 16 17 17 19 19 20 21 22 24 24 24 24 23 23 23 22 21 20 20 19 18 17 16 16 16
11 11 11 11 12 12 12 12 13 14 16 17 17 18 18 18 19 20 21 22 23 24 24 24 24 24 24 24 22 21 21 21 21 21 20 19 18 17
12 12 12 13 13 13 14 14 15 16 17 18 19 19 20 20 20 21 21 22 22 23 24 24 24 25 25 24 22 21 21 21 20 20 20 19 19 18
13 13 14 14 14 14 15 16 17 18 18 19 20 21 21 22 23 23 23 23 23 23 23 24 24 24 23 22 21 21 20 20 20 19 19 19 19 18
Wind_Direction
293 293 293 293 293 293 293 293 292 292 291 291 290 290 289 289 289 288 288 287 286 285 283 282 280 279 277 274 272 269 266 262 258 254 250 247 244 242
293 293 293 294 294 294 294 294 294 294 293 292 291 290 290 291 291 290 290 289 289 287 286 283 281 279 277 274 271 268 264 261 257 253 249 245 242 239
293 293 294 294 295 294 295 296 296 295 295 294 293 292 292 292 292 293 293 292 291 289 287 285 282 279 277 274 272 269 265 261 258 254 250 246 242 239
294 294 295 296 296 296 297 297 296 296 296 295 295 295 294 295 295 295 295 294 292 290 289 287 284 281 279 276 274 271 267 263 259 254 250 245 241 238
295 296 297 297 297 297 297 296 297 297 297 298 297 297 297 297 298 298 297 296 295 294 292 289 287 283 281 278 275 271 268 264 259 254 249 244 239 236
296 297 297 297 297 297 297 297 298 299 300 301 301 300 300 301 301 301 301 300 299 298 296 293 290 287 283 280 277 272 268 264 260 254 249 243 239 235
297 297 297 297 297 297 298 299 300 301 302 302 303 303 303 304 305 305 305 304 303 302 300 297 294 290 285 282 278 274 269 264 259 254 248 242 238 234
297 297 297 298 298 299 299 300 302 303 304 304 304 305 306 307 308 309 308 307 306 305 303 300 297 293 288 284 280 275 271 264 257 252 246 240 236 232
297 298 299 299 299 300 302 303 305 306 306 307 309 311 312 314 314 314 314 313 311 309 307 304 300 296 291 287 283 277 270 264 257 251 245 240 235 230
297 297 298 299 300 302 303 305 306 308 310 313 317 319 320 320 320 321 320 320 319 318 316 312 307 302 297 291 286 280 271 263 256 249 244 239 234 229
297 298 299 300 302 303 304 306 307 311 316 321 324 326 327 328 329 329 330 330 330 329 328 324 320 315 308 299 292 285 273 264 257 249 242 237 232 228
298 299 300 301 302 304 305 307 312 318 325 330 332 333 334 336 338 339 340 341 341 340 338 335 332 329 322 313 302 292 279 266 256 248 240 233 229 225
299 300 301 301 302 305 308 314 322 330 334 336 338 340 343 345 346 347 348 350 351 351 352 351 348 344 338 328 317 306 289 271 254 242 233 227 223 219
300 300 300 302 306 312 321 331 337 340 343 345 348 351 352 352 354 355 356 357 359 0 1 1 359 357 354 348 338 325 306 274 248 233 222 216 213 210
301 300 303 308 318 333 346 350 351 353 355 357 359 1 2 3 4 5 6 8 9 10 11 10 9 9 10 8 2 356 348 322 220 207 201 199 198 200
304 307 318 344 20 29 17 12 10 10 9 10 11 10 11 12 13 13 14 17 18 18 18 17 17 20 23 24 26 32 43 66 117 149 170 179 182 185
350 62 74 73 66 53 40 31 27 25 22 22 20 18 18 19 19 19 22 24 24 24 24 25 28 31 32 35 40 47 57 75 97 114 134 150 160 166
92 91 89 83 75 65 55 49 44 37 32 28 25 24 24 26 26 25 26 28 29 30 30 32 36 39 40 43 49 56 65 77 88 98 110 124 137 145
93 92 90 86 80 74 68 61 52 45 39 36 34 33 33 32 32 32 31 32 34 37 39 40 42 45 47 50 55 63 72 79 84 91 100 109 118 126
93 93 90 89 87 82 75 66 56 50 46 45 43 42 41 39 37 37 37 37 39 42 44 46 47 50 53 55 59 68 75 80 83 88 94 99 107 115
93 92 92 94 92 85 77 67 61 56 53 52 51 50 47 45 43 43 43 43 45 46 48 50 52 54 57 59 61 69 77 82 86 89 91 95 101 107
94 93 95 96 91 85 77 71 65 62 59 57 55 54 52 50 49 48 48 48 49 50 51 52 54 56 58 60 63 69 75 81 86 88 91 95 99 104
95 97 98 96 91 85 79 74 69 66 63 60 58 57 55 55 54 53 52 51 51 51 51 52 53 55 57 60 64 68 73 78 83 86 89 94 97 103
Height
5717 5712 5707 5701 5696 5691 5686 5681 5678 5675 5672 5664 5654 5646 5638 5633 5628 5623 5619 5613 5608 5604 5600 5596 5593 5590 5588 5587 5586 5587 5588 5590 5593 5597 5602 5609 5616 5624
5702 5697 5691 5686 5681 5675 5670 5664 5659 5655 5653 5647 5638 5630 5622 5616 5610 5604 5599 5593 5588 5582 5578 5574 5571 5568 5566 5565 5564 5564 5565 5567 5570 5574 5579 5586 5594 5602
5687 5682 5676 5671 5665 5660 5654 5648 5642 5637 5633 5629 5620 5612 5605 5598 5592 5586 5580 5574 5569 5564 5560 5556 5553 5551 5548 5547 5546 5546 5546 5548 5550 5554 5559 5566 5573 5582
5672 5667 5661 5656 5650 5645 5638 5632 5626 5620 5615 5611 5604 5596 5588 5581 5576 5570 5564 5558 5554 5550 5546 5542 5539 5537 5535 5533 5532 5532 5532 5533 5534 5537 5542 5548 5555 5562
5657 5652 5647 5641 5636 5630 5623 5617 5611 5605 5599 5594 5588 5580 5573 5567 5562 5557 5551 5546 5542 5539 5535 5532 5529 5526 5524 5522 5520 5520 5519 5520 5521 5523 5527 5532 5539 5546
5643 5638 5632 5627 5622 5616 5610 5603 5597 5591 5585 5579 5573 5567 5561 5556 5551 5547 5543 5538 5534 5530 5526 5522 5519 5516 5513 5511 5510 5509 5508 5508 5509 5511 5514 5519 5525 5532
5629 5624 5618 5613 5608 5602 5597 5591 5585 5579 5573 5567 5562 5558 5553 5548 5544 5540 5536 5531 5526 5522 5518 5514 5510 5507 5505 5502 5501 5499 5499 5499 5500 5501 5504 5508 5513 5520
5616 5610 5605 5600 5595 5589 5584 5579 5574 5569 5564 5559 5555 5551 5547 5542 5538 5533 5529 5525 5521 5516 5511 5507 5502 5500 5497 5494 5493 5491 5490 5490 5491 5493 5495 5498 5503 5509
5603 5598 5593 5588 5584 5579 5574 5569 5564 5560 5556 5552 5549 5545 5541 5537 5533 5529 5523 5518 5514 5510 5505 5500 5496 5493 5490 5487 5485 5484 5483 5483 5484 5485 5488 5491 5495 5500
5592 5588 5583 5578 5574 5570 5566 5561 5557 5554 5551 5548 5545 5541 5537 5533 5529 5524 5519 5514 5509 5504 5499 5495 5491 5487 5484 5481 5479 5477 5477 5477 5477 5479 5481 5484 5488 5492
5581 5578 5574 5570 5566 5563 5559 5556 5553 5550 5548 5545 5542 5538 5534 5530 5525 5520 5515 5511 5506 5500 5495 5491 5487 5483 5479 5476 5474 5472 5471 5471 5472 5473 5475 5478 5481 5486
5572 5569 5566 5563 5560 5557 5555 5553 5550 5548 5546 5543 5540 5536 5532 5527 5523 5518 5513 5508 5503 5498 5493 5488 5484 5479 5476 5473 5470 5468 5467 5466 5467 5468 5470 5473 5476 5480
5564 5562 5559 5557 5555 5554 5552 5550 5548 5546 5544 5541 5538 5535 5530 5526 5521 5516 5511 5506 5501 5496 5491 5486 5481 5477 5473 5470 5467 5465 5463 5463 5463 5464 5466 5468 5472 5476
5558 5556 5555 5553 5552 5551 5550 5549 5547 5545 5543 5540 5537 5534 5529 5525 5520 5516 5511 5505 5500 5495 5490 5485 5480 5475 5471 5468 5465 5462 5461 5460 5460 5461 5463 5465 5469 5472
5554 5552 5552 5551 5551 5550 5549 5548 5547 5545 5542 5540 5537 5533 5529 5525 5520 5516 5511 5506 5500 5495 5490 5485 5480 5475 5471 5467 5464 5461 5459 5459 5459 5460 5462 5464 5467 5471
5551 5550 5550 5550 5550 5550 5549 5548 5546 5544 5542 5540 5536 5533 5529 5525 5521 5516 5512 5507 5502 5496 5491 5486 5481 5476 5472 5468 5464 5462 5460 5459 5459 5460 5462 5464 5467 5470
5550 5550 5550 5550 5550 5550 5549 5548 5547 5545 5543 5540 5537 5534 5530 5526 5522 5518 5513 5509 5504 5499 5493 5488 5483 5479 5475 5471 5468 5465 5463 5462 5462 5462 5464 5466 5469 5471
5550 5550 5551 5551 5551 5550 5550 5549 5548 5546 5544 5541 5538 5535 5531 5528 5524 5520 5516 5511 5507 5502 5497 5492 5488 5483 5479 5476 5473 5470 5468 5467 5467 5467 5468 5470 5473 5475
5551 5552 5552 5552 5552 5552 5551 5550 5549 5547 5545 5542 5539 5536 5533 5530 5526 5522 5518 5514 5510 5506 5501 5497 5493 5489 5485 5482 5479 5476 5474 5473 5473 5474 5474 5476 5478 5480
5553 5553 5554 5554 5554 5554 5553 5553 5551 5549 5547 5544 5542 5539 5536 5533 5529 5526 5522 5518 5514 5510 5506 5502 5499 5495 5492 5489 5486 5484 5482 5481 5481 5481 5481 5482 5484 5486
5555 5556 5556 5556 5557 5556 5556 5555 5554 5552 5550 5547 5545 5542 5539 5536 5533 5530 5526 5523 5519 5515 5512 5509 5505 5502 5498 5496 5494 5492 5490 5489 5489 5489 5489 5490 5491 5493
5558 5559 5559 5559 5560 5560 5559 5558 5556 5555 5553 5551 5548 5546 5543 5540 5537 5534 5531 5528 5525 5521 5518 5515 5511 5508 5506 5504 5502 5500 5499 5498 5497 5497 5497 5498 5499 5500
5562 5562 5563 5563 5563 5563 5562 5561 5560 5559 5557 5555 5553 5550 5548 5545 5542 5539 5536 5533 5530 5527 5524 5521 5518 5515 5513 5511 5510 5508 5507 5506 5505 5505 5505 5505 5506 5507